📊 Raw Sensor Data
Showing records 38401 to 38425 of 84,929 total
| ID | Distance (ft) | Battery V | Battery A | Int Temp (°F) | Int Humid (%) | Ext Temp (°F) | Solar V | RSSI | SNR | Time Stamp |
|---|---|---|---|---|---|---|---|---|---|---|
| 46541 | 15.2 | 3.96 | 0 | 63 | 43 | 69 | 5.10 | -73 | 8 | 07/17/2025 08:00 AM |
| 46540 | 15.1 | 4.11 | 0 | 61 | 42 | 66 | 5.10 | -73 | 8 | 07/17/2025 07:45 AM |
| 46539 | 15.1 | 3.94 | 0 | 60 | 42 | 65 | 5.10 | -71 | 8 | 07/17/2025 07:30 AM |
| 46538 | 15.0 | 4.00 | 31 | 58 | 42 | 62 | 4.50 | -72 | 7 | 07/17/2025 07:15 AM |
| 46537 | 15.0 | 4.04 | -6 | 56 | 42 | 60 | 4.50 | -70 | 8 | 07/17/2025 07:00 AM |
| 46536 | 14.9 | 3.99 | 0 | 55 | 42 | 57 | 4.50 | -73 | 8 | 07/17/2025 06:45 AM |
| 46535 | 14.9 | 3.87 | 0 | 55 | 43 | 56 | 4.50 | -72 | 7 | 07/17/2025 06:30 AM |
| 46534 | 14.9 | 3.81 | -7 | 55 | 43 | 56 | 4.50 | -72 | 8 | 07/17/2025 06:15 AM |
| 46533 | 14.9 | 3.93 | -10 | 54 | 43 | 56 | 4.10 | -72 | 9 | 07/17/2025 06:00 AM |
| 46532 | 14.9 | 3.83 | -5 | 54 | 43 | 55 | 1.00 | -72 | 8 | 07/17/2025 05:45 AM |
| 46531 | 14.9 | 3.83 | -5 | 54 | 43 | 55 | 0.00 | -70 | 8 | 07/17/2025 05:30 AM |
| 46530 | 14.9 | 3.81 | -5 | 54 | 43 | 55 | 0.00 | -71 | 8 | 07/17/2025 05:15 AM |
| 46529 | 14.9 | 3.78 | -5 | 54 | 43 | 55 | 0.00 | -72 | 8 | 07/17/2025 05:00 AM |
| 46528 | 14.9 | 3.95 | -5 | 54 | 43 | 55 | 0.00 | -72 | 8 | 07/17/2025 04:45 AM |
| 46527 | 14.9 | 3.78 | -5 | 54 | 43 | 55 | 0.00 | -71 | 8 | 07/17/2025 04:30 AM |
| 46526 | 15.0 | 3.77 | -5 | 54 | 43 | 56 | 0.00 | -72 | 7 | 07/17/2025 04:15 AM |
| 46525 | 14.9 | 3.78 | -5 | 54 | 43 | 56 | 0.00 | -71 | 8 | 07/17/2025 04:00 AM |
| 46524 | 15.0 | 3.79 | -5 | 54 | 43 | 56 | 0.00 | -72 | 8 | 07/17/2025 03:45 AM |
| 46523 | 15.0 | 3.95 | -5 | 55 | 43 | 56 | 0.00 | -70 | 8 | 07/17/2025 03:30 AM |
| 46522 | 14.9 | 3.82 | -5 | 55 | 43 | 56 | 0.00 | -72 | 8 | 07/17/2025 03:15 AM |
| 46521 | 14.9 | 3.80 | -5 | 55 | 44 | 56 | 0.00 | -71 | 9 | 07/17/2025 03:00 AM |
| 46520 | 14.9 | 3.95 | -5 | 55 | 44 | 56 | 0.00 | -71 | 8 | 07/17/2025 02:45 AM |
| 46519 | 14.9 | 3.95 | -5 | 55 | 44 | 56 | 0.00 | -71 | 9 | 07/17/2025 02:30 AM |
| 46518 | 14.9 | 3.81 | -5 | 55 | 44 | 56 | 0.00 | -71 | 8 | 07/17/2025 02:15 AM |
| 46517 | 14.9 | 3.81 | -5 | 55 | 44 | 56 | 0.00 | -71 | 8 | 07/17/2025 02:00 AM |